FW1021 Weather Reports


Display with metric or nautical units.
time (UTC)temp
F
wind
direction
speed
MPH
gust
MPH
rain 1hr
in
rain 24hr
in
rain mn
in
humidity
%
barometer
mb
20210617092043 74 0 0.0 0.0 0.00 0.00 0.00 92 1014.0
20210617091655 74 0 0.0 0.0 0.00 0.00 0.00 92 1014.2
20210617091046 74 0 0.0 0.0 0.00 0.00 0.00 92 1014.0
20210617090541 74 0 0.0 0.0 0.00 0.00 0.00 92 1014.0
20210617090104 74 0 0.0 0.0 0.00 0.00 0.00 93 1014.1
20210617085543 74 0 0.0 0.0 0.00 0.00 0.00 93 1014.0
20210617085039 73 0 0.0 1.0 0.00 0.00 0.00 93 1014.0
20210617084620 73 0 0.0 2.0 0.00 0.00 0.00 93 1013.9
20210617084043 74 0 0.0 2.0 0.00 0.00 0.00 93 1013.9
20210617083543 74 325 0.0 2.0 0.00 0.00 0.00 92 1014.0
20210617083108 74 0 0.0 2.0 0.00 0.00 0.00 92 1014.1
20210617082543 74 325 1.0 2.0 0.00 0.00 0.00 92 1014.1
20210617082041 74 0 0.0 2.0 0.00 0.00 0.00 92 1014.2
20210617081620 74 0 0.0 2.0 0.00 0.00 0.00 92 1014.1
20210617081056 74 0 0.0 2.0 0.00 0.00 0.00 91 1014.2
20210617080543 74 0 0.0 0.0 0.00 0.00 0.00 91 1014.4
20210617080136 74 0 0.0 1.0 0.00 0.00 0.00 90 1014.4
20210617075549 74 0 0.0 2.0 0.00 0.00 0.00 91 1014.4
20210617075108 75 325 0.0 2.0 0.00 0.00 0.00 88 1014.5
20210617074615 75 325 0.0 2.0 0.00 0.00 0.00 87 1014.5
20210617074042 75 0 0.0 2.0 0.00 0.00 0.00 87 1014.4
20210617073543 75 0 0.0 4.0 0.00 0.00 0.00 88 1014.5
20210617073124 74 325 2.0 4.0 0.00 0.00 0.00 88 1014.5
20210617072545 74 155 0.0 2.0 0.00 0.00 0.00 89 1014.4
20210617072042 74 0 0.0 3.0 0.00 0.00 0.00 90 1014.4
20210617071643 74 155 0.0 3.0 0.00 0.00 0.00 90 1014.4
20210617071043 74 155 0.0 0.0 0.00 0.00 0.00 89 1014.4
20210617070540 74 0 0.0 0.0 0.00 0.00 0.00 88 1014.6
20210617070107 74 0 0.0 0.0 0.00 0.00 0.00 88 1014.5
20210617065542 75 0 0.0 0.0 0.00 0.00 0.00 88 1014.5
20210617065045 75 0 0.0 0.0 0.00 0.00 0.00 85 1014.4
20210617064634 76 0 0.0 0.0 0.00 0.00 0.00 84 1014.5
20210617064041 75 0 0.0 0.0 0.00 0.00 0.00 85 1014.5
20210617063543 74 0 0.0 0.0 0.00 0.00 0.00 87 1014.4
20210617063139 74 0 0.0 0.0 0.00 0.00 0.00 87 1014.3
20210617062547 74 0 0.0 2.0 0.00 0.00 0.00 88 1014.2
20210617062040 74 0 0.0 2.0 0.00 0.00 0.00 87 1014.2
20210617061625 74 144 1.0 2.0 0.00 0.00 0.00 87 1014.3
20210617061101 74 144 1.0 2.0 0.00 0.00 0.00 88 1014.4
20210617060543 74 144 1.0 2.0 0.00 0.00 0.00 87 1014.3
20210617060132 75 0 0.0 0.0 0.00 0.00 0.00 87 1014.3
20210617055542 75 0 0.0 0.0 0.00 0.00 0.00 86 1014.4
20210617055044 75 0 0.0 0.0 0.00 0.00 0.00 85 1014.5
20210617054637 75 0 0.0 0.0 0.00 0.00 0.00 85 1014.5
20210617054044 76 0 0.0 0.0 0.00 0.00 0.00 85 1014.6
20210617053542 76 0 0.0 0.0 0.00 0.00 0.00 83 1014.5
20210617053152 77 0 0.0 0.0 0.00 0.00 0.00 79 1014.6
20210617052541 78 0 0.0 0.0 0.00 0.00 0.00 78 1014.6
20210617052048 78 0 0.0 0.0 0.00 0.00 0.00 78 1014.5
20210617051717 78 0 0.0 0.0 0.00 0.00 0.00 79 1014.5
20210617051040 78 0 0.0 0.0 0.00 0.00 0.00 79 1014.5
20210617050540 77 0 0.0 0.0 0.00 0.00 0.00 79 1014.4
20210617050207 77 0 0.0 0.0 0.00 0.00 0.00 79 1014.4
20210617045543 78 0 0.0 0.0 0.00 0.00 0.00 78 1014.4
20210617045056 78 0 0.0 0.0 0.00 0.00 0.00 79 1014.5
20210617044656 78 0 0.0 0.0 0.00 0.00 0.00 80 1014.6
20210617044041 78 0 0.0 0.0 0.00 0.00 0.00 79 1014.6
20210617043543 79 0 0.0 0.0 0.00 0.00 0.00 77 1014.6
20210617043129 79 0 0.0 0.0 0.00 0.00 0.00 75 1014.6
20210617042540 79 0 0.0 0.0 0.00 0.00 0.00 74 1014.6
20210617042042 80 0 0.0 0.0 0.00 0.00 0.00 74 1014.6
20210617041637 80 0 0.0 0.0 0.00 0.00 0.00 74 1014.7
20210617041050 79 0 0.0 0.0 0.00 0.00 0.00 74 1014.6
20210617040602 79 0 0.0 2.0 0.00 0.00 0.00 77 1014.7
20210617040157 79 0 0.0 2.0 0.00 0.00 0.00 76 1014.7
20210617035550 79 146 0.0 2.0 0.00 0.00 0.00 76 1014.7
20210617035041 79 146 0.0 0.0 0.00 0.00 0.00 77 1014.6
20210617034702 78 0 0.0 0.0 0.00 0.00 0.00 78 1014.5
20210617034039 78 0 0.0 1.0 0.00 0.00 0.00 80 1014.6
20210617033548 78 0 0.0 1.0 0.00 0.00 0.00 80 1014.6
20210617033113 78 0 0.0 0.0 0.00 0.00 0.00 81 1014.5
20210617032542 78 0 0.0 0.0 0.00 0.00 0.00 80 1014.6
20210617032041 78 0 0.0 0.0 0.00 0.00 0.00 81 1014.6
20210617031609 78 0 0.0 0.0 0.00 0.00 0.00 81 1014.6
20210617031040 79 0 0.0 0.0 0.00 0.00 0.00 80 1014.6
20210617030556 79 0 0.0 0.0 0.00 0.00 0.00 80 1014.6
20210617030202 79 0 0.0 0.0 0.00 0.00 0.00 82 1014.6
20210617025541 79 0 0.0 0.0 0.00 0.00 0.00 82 1014.5
20210617025041 79 0 0.0 0.0 0.00 0.00 0.00 80 1014.5
20210617024741 79 0 0.0 0.0 0.00 0.00 0.00 80 1014.5
20210617024040 79 0 0.0 0.0 0.00 0.00 0.00 80 1014.4
20210617023548 80 0 0.0 0.0 0.00 0.00 0.00 79 1014.4
20210617023055 80 0 0.0 0.0 0.00 0.00 0.00 78 1014.4
20210617022547 81 0 0.0 0.0 0.00 0.00 0.00 78 1014.3
20210617022048 80 0 0.0 0.0 0.00 0.00 0.00 78 1014.3
20210617021642 81 0 0.0 0.0 0.00 0.00 0.00 78 1014.2
20210617021044 81 0 0.0 0.0 0.00 0.00 0.00 78 1014.2
20210617020551 80 0 0.0 2.0 0.00 0.00 0.00 79 1014.2
20210617020111 80 0 0.0 2.0 0.00 0.00 0.00 79 1014.1
20210617015551 80 146 1.0 2.0 0.00 0.00 0.00 79 1014.2
20210617015041 80 146 1.0 2.0 0.00 0.00 0.00 80 1014.1
20210617014604 81 0 0.0 0.0 0.00 0.00 0.00 78 1014.2
20210617014041 82 0 0.0 0.0 0.00 0.00 0.00 76 1014.2
20210617013544 83 0 0.0 0.0 0.00 0.00 0.00 75 1014.2
20210617013120 83 0 0.0 0.0 0.00 0.00 0.00 75 1014.2
20210617012544 83 0 0.0 0.0 0.00 0.00 0.00 75 1014.3
20210617012046 84 0 0.0 0.0 0.00 0.00 0.00 71 1014.2
20210617011650 84 0 0.0 2.0 0.00 0.00 0.00 69 1014.2
20210617011043 84 0 0.0 2.0 0.00 0.00 0.00 69 1014.2
20210617010543 85 146 0.0 3.0 0.00 0.00 0.00 69 1014.1
20210617010115 84 0 0.0 3.0 0.00 0.00 0.00 72 1014.1
20210617005541 85 0 0.0 2.0 0.00 0.00 0.00 71 1014.2
20210617005041 85 0 0.0 2.0 0.00 0.00 0.00 70 1014.2
20210617004556 85 0 0.0 2.0 0.00 0.00 0.00 72 1014.2
20210617004040 86 142 0.0 2.0 0.00 0.00 0.00 71 1014.2
20210617003541 87 142 0.0 2.0 0.00 0.00 0.00 70 1014.1
20210617003149 87 0 0.0 5.0 0.00 0.00 0.00 70 1014.1
20210617002540 87 0 1.0 5.0 0.00 0.00 0.00 67 1014.0
20210617002046 88 0 0.0 1.0 0.00 0.00 0.00 64 1013.9
20210617001600 89 0 0.0 1.0 0.00 0.00 0.00 63 1013.9
20210617001044 89 0 0.0 1.0 0.00 0.00 0.00 64 1014.0
20210617000546 89 0 0.0 1.0 0.00 0.00 0.00 63 1014.0
20210617000200 89 0 0.0 1.0 0.00 0.00 0.00 63 1014.0
20210616235540 90 0 0.0 0.0 0.00 0.00 0.00 62 1014.0
20210616235043 90 0 0.0 1.0 0.00 0.00 0.00 63 1014.0
20210616234628 89 0 0.0 1.0 0.00 0.00 0.00 62 1014.0
20210616234058 90 0 0.0 1.0 0.00 0.00 0.00 60 1013.9
20210616233541 90 0 0.0 1.0 0.00 0.00 0.00 61 1013.9
20210616233054 90 0 0.0 1.0 0.00 0.00 0.00 64 1014.0
20210616232543 90 0 0.0 1.0 0.00 0.00 0.00 63 1014.0
20210616232040 90 0 0.0 2.0 0.00 0.00 0.00 61 1014.1
20210616231614 90 0 0.0 3.0 0.00 0.00 0.00 61 1014.0
20210616231041 90 0 0.0 3.0 0.00 0.00 0.00 59 1014.1
20210616230604 90 65 0.0 3.0 0.00 0.00 0.00 58 1014.0
20210616230304 91 0 0.0 1.0 0.00 0.00 0.00 62 1014.1
20210616225540 90 65 0.0 2.0 0.00 0.00 0.00 62 1014.1
20210616225045 90 65 0.0 2.0 0.00 0.00 0.00 59 1014.2
20210616224635 91 0 0.0 1.0 0.00 0.00 0.00 61 1014.2
20210616224044 91 0 0.0 2.0 0.00 0.00 0.00 61 1014.3
20210616223548 91 0 1.0 3.0 0.00 0.00 0.00 58 1014.3
20210616223048 91 62 0.0 3.0 0.00 0.00 0.00 60 1014.2
20210616222615 90 62 1.0 3.0 0.00 0.00 0.00 60 1014.4
20210616222043 91 60 1.0 3.0 0.00 0.00 0.00 56 1014.4
20210616221558 91 97 1.0 3.0 0.00 0.00 0.00 56 1014.5
20210616221046 91 98 0.0 3.0 0.00 0.00 0.00 58 1014.5
20210616220606 91 98 1.0 3.0 0.00 0.00 0.00 59 1014.5
20210616220126 91 0 0.0 3.0 0.00 0.00 0.00 60 1014.7
20210616215558 90 0 1.0 3.0 0.00 0.00 0.00 58 1014.6
20210616215044 91 88 0.0 3.0 0.00 0.00 0.00 59 1014.6
20210616214628 92 0 0.0 3.0 0.00 0.00 0.00 59 1014.6
20210616214047 92 87 1.0 4.0 0.00 0.00 0.00 56 1014.6
20210616213632 92 0 1.0 4.0 0.00 0.00 0.00 57 1014.6
20210616213225 92 98 1.0 6.0 0.00 0.00 0.00 58 1014.5
20210616212547 92 83 1.0 6.0 0.00 0.00 0.00 60 1014.5
20210616212043 92 0 0.0 3.0 0.00 0.00 0.00 58 1014.5
20210616211707 93 0 1.0 4.0 0.00 0.00 0.00 54 1014.5
20210616211052 93 78 1.0 5.0 0.00 0.00 0.00 57 1014.5
20210616210543 93 82 1.0 5.0 0.00 0.00 0.00 56 1014.5
20210616210232 93 69 2.0 5.0 0.00 0.00 0.00 55 1014.6
20210616205550 93 76 1.0 4.0 0.00 0.00 0.00 56 1014.7
20210616205047 93 79 0.0 4.0 0.00 0.00 0.00 61 1014.8
20210616204720 93 38 0.0 4.0 0.00 0.00 0.00 53 1014.9
20210616204042 93 0 1.0 4.0 0.00 0.00 0.00 58 1014.9
20210616203554 93 61 1.0 4.0 0.00 0.00 0.00 55 1014.9
20210616203200 92 38 1.0 4.0 0.00 0.00 0.00 55 1015.1
20210616202557 93 64 1.0 4.0 0.00 0.00 0.00 55 1015.0
20210616202042 92 80 1.0 4.0 0.00 0.00 0.00 57 1015.0
20210616201627 92 86 2.0 4.0 0.00 0.00 0.00 55 1015.1
20210616201041 93 74 1.0 4.0 0.00 0.00 0.00 53 1015.1
20210616200553 93 58 1.0 4.0 0.00 0.00 0.00 54 1015.1
20210616200236 92 0 1.0 4.0 0.00 0.00 0.00 57 1015.2
20210616195545 93 81 1.0 5.0 0.00 0.00 0.00 60 1015.2
20210616195041 92 86 1.0 5.0 0.00 0.00 0.00 59 1015.3
20210616194617 92 49 1.0 5.0 0.00 0.00 0.00 57 1015.3
20210616194104 91 60 2.0 5.0 0.00 0.00 0.00 56 1015.3
20210616193545 91 60 3.0 5.0 0.00 0.00 0.00 57 1015.4
20210616193221 91 71 2.0 4.0 0.00 0.00 0.00 55 1015.4
20210616192551 91 126 1.0 4.0 0.00 0.00 0.00 55 1015.5
20210616192043 91 100 1.0 4.0 0.00 0.00 0.00 54 1015.5
20210616191639 92 0 1.0 4.0 0.00 0.00 0.00 60 1015.5
20210616191043 92 74 0.0 4.0 0.00 0.00 0.00 55 1015.7
20210616190543 92 0 1.0 4.0 0.00 0.00 0.00 55 1015.7
20210616190152 91 65 2.0 4.0 0.00 0.00 0.00 56 1015.7
20210616185545 91 80 2.0 4.0 0.00 0.00 0.00 57 1015.7
20210616185043 91 0 1.0 4.0 0.00 0.00 0.00 55 1015.7
20210616184627 91 115 2.0 4.0 0.00 0.00 0.00 57 1015.9
20210616184041 91 104 1.0 4.0 0.00 0.00 0.00 57 1016.0
20210616183557 91 88 1.0 4.0 0.00 0.00 0.00 56 1015.9
20210616183200 91 78 2.0 4.0 0.00 0.00 0.00 54 1016.0
20210616182556 93 122 0.0 4.0 0.00 0.00 0.00 56 1016.1
20210616182106 90 105 1.0 3.0 0.00 0.00 0.00 59 1016.0
20210616181625 91 117 1.0 4.0 0.00 0.00 0.00 57 1016.2
20210616181050 91 59 0.0 4.0 0.00 0.00 0.00 57 1016.1
20210616180542 91 120 0.0 4.0 0.00 0.00 0.00 57 1016.2
20210616180114 90 98 2.0 5.0 0.00 0.00 0.00 57 1016.2
20210616175553 89 106 2.0 5.0 0.00 0.00 0.00 60 1016.3
20210616175043 90 0 1.0 4.0 0.00 0.00 0.00 57 1016.4
20210616174823 90 104 1.0 4.0 0.00 0.00 0.00 57 1016.5
20210616174053 90 90 1.0 4.0 0.00 0.00 0.00 64 1016.6
20210616173612 88 0 1.0 4.0 0.00 0.00 0.00 60 1016.6
20210616173341 89 0 0.0 3.0 0.00 0.00 0.00 65 1016.6
20210616172550 88 0 0.0 5.0 0.00 0.00 0.00 62 1016.6
20210616172042 88 61 1.0 5.0 0.00 0.00 0.00 62 1016.7
20210616171641 89 123 1.0 4.0 0.00 0.00 0.00 61 1016.9
20210616171044 90 0 1.0 4.0 0.00 0.00 0.00 65 1016.8
20210616170550 89 84 1.0 3.0 0.00 0.00 0.00 62 1016.7
20210616170216 88 74 0.0 4.0 0.00 0.00 0.00 64 1016.8
20210616165547 87 123 2.0 4.0 0.00 0.00 0.00 64 1016.8
20210616165043 88 125 1.0 4.0 0.00 0.00 0.00 65 1016.8
20210616164734 86 118 1.0 4.0 0.00 0.00 0.00 65 1016.8
20210616164043 87 34 1.0 4.0 0.00 0.00 0.00 63 1016.8
20210616163544 87 146 1.0 4.0 0.00 0.00 0.00 69 1016.7
20210616163210 87 131 1.0 4.0 0.00 0.00 0.00 65 1016.8
20210616162548 86 81 1.0 4.0 0.00 0.00 0.00 68 1016.9
20210616162108 85 63 1.0 4.0 0.00 0.00 0.00 68 1016.9
20210616161632 84 88 2.0 4.0 0.00 0.00 0.00 69 1017.0
20210616161053 85 74 1.0 3.0 0.00 0.00 0.00 69 1016.9
20210616160556 85 0 1.0 4.0 0.00 0.00 0.00 71 1017.0
20210616160140 84 0 1.0 5.0 0.00 0.00 0.00 71 1016.8
20210616155543 83 65 2.0 5.0 0.00 0.00 0.00 71 1016.8
20210616155043 84 77 1.0 5.0 0.00 0.00 0.00 72 1017.0
20210616154703 83 0 2.0 5.0 0.00 0.00 0.00 75 1017.0
20210616154047 82 65 1.0 4.0 0.00 0.00 0.00 73 1016.9
20210616153550 83 72 1.0 4.0 0.00 0.00 0.00 72 1017.1
20210616153315 84 88 0.0 4.0 0.00 0.00 0.00 71 1017.1
20210616152551 83 0 0.0 6.0 0.00 0.00 0.00 75 1017.0
20210616152042 83 0 1.0 6.0 0.00 0.00 0.00 80 1017.1
20210616151737 81 59 3.0 5.0 0.00 0.00 0.00 76 1017.0
20210616151044 82 84 0.0 4.0 0.00 0.00 0.00 79 1017.0
20210616150542 82 44 1.0 7.0 0.00 0.00 0.00 75 1017.0
20210616150205 82 88 2.0 7.0 0.00 0.00 0.00 74 1017.1
20210616145553 82 75 1.0 4.0 0.00 0.00 0.00 75 1017.0
20210616145107 82 55 2.0 4.0 0.00 0.00 0.00 75 1017.1
20210616144630 83 124 1.0 4.0 0.00 0.00 0.00 78 1017.1
20210616144041 81 123 1.0 4.0 0.00 0.00 0.00 79 1017.2
20210616143543 82 74 0.0 4.0 0.00 0.00 0.00 77 1017.2
20210616143251 81 71 0.0 5.0 0.00 0.00 0.00 78 1017.2
20210616142549 81 84 1.0 5.0 0.00 0.00 0.00 76 1017.3
20210616142052 80 71 2.0 6.0 0.00 0.00 0.00 76 1017.2
20210616141624 80 76 2.0 6.0 0.00 0.00 0.00 78 1017.2
20210616141048 80 98 1.0 4.0 0.00 0.00 0.00 80 1017.2
20210616140543 79 24 1.0 4.0 0.00 0.00 0.00 78 1017.0
20210616140141 79 75 2.0 5.0 0.00 0.00 0.00 80 1017.2
20210616135543 79 58 1.0 5.0 0.00 0.00 0.00 84 1017.2
20210616135044 77 0 0.0 2.0 0.00 0.00 0.00 82 1017.1
20210616134735 78 93 0.0 2.0 0.00 0.00 0.00 83 1017.0
20210616134045 76 0 0.0 2.0 0.00 0.00 0.00 83 1016.9
20210616133543 76 0 0.0 3.0 0.00 0.00 0.00 84 1016.8
20210616133248 76 0 0.0 3.0 0.00 0.00 0.00 87 1016.8
20210616132553 76 98 0.0 4.0 0.00 0.00 0.00 86 1016.6
20210616132119 76 113 2.0 4.0 0.00 0.00 0.00 87 1016.6
20210616131820 75 0 0.0 2.0 0.00 0.00 0.00 89 1016.7
20210616131045 75 138 0.0 2.0 0.00 0.00 0.00 90 1016.6
20210616130549 75 0 0.0 3.0 0.00 0.00 0.00 91 1016.6
20210616130130 74 184 0.0 3.0 0.00 0.00 0.00 92 1016.6
20210616125543 74 0 0.0 2.0 0.00 0.00 0.00 91 1016.5
20210616125055 73 0 0.0 0.0 0.00 0.00 0.00 93 1016.6
20210616124651 73 0 0.0 0.0 0.00 0.00 0.00 93 1016.5
20210616124047 72 0 0.0 0.0 0.00 0.00 0.00 94 1016.6
20210616123544 72 0 0.0 0.0 0.00 0.00 0.00 93 1016.5
20210616123201 72 0 0.0 0.0 0.00 0.00 0.00 95 1016.4
20210616122543 72 0 0.0 0.0 0.00 0.00 0.00 94 1016.2
20210616122052 71 0 0.0 0.0 0.00 0.00 0.00 95 1016.2
20210616121735 71 0 0.0 0.0 0.00 0.00 0.00 95 1016.1
20210616121044 71 0 0.0 0.0 0.00 0.00 0.00 94 1016.1
20210616120545 71 0 0.0 0.0 0.00 0.00 0.00 93 1016.1
20210616120247 71 0 0.0 0.0 0.00 0.00 0.00 94 1016.2
20210616115549 71 0 0.0 0.0 0.00 0.00 0.00 94 1016.1
20210616115050 71 0 0.0 0.0 0.00 0.00 0.00 95 1015.9
20210616114639 71 0 0.0 0.0 0.00 0.00 0.00 95 1015.8
20210616114047 71 0 0.0 0.0 0.00 0.00 0.00 95 1015.8
20210616113542 71 0 0.0 0.0 0.00 0.00 0.00 94 1015.7
20210616113156 71 0 0.0 0.0 0.00 0.00 0.00 96 1015.7
20210616112542 70 0 0.0 0.0 0.00 0.00 0.00 95 1015.6
20210616112105 71 0 0.0 0.0 0.00 0.00 0.00 95 1015.5
20210616111745 71 0 0.0 0.0 0.00 0.00 0.00 96 1015.6
20210616111056 70 0 0.0 0.0 0.00 0.00 0.00 96 1015.6
20210616110543 71 0 0.0 0.0 0.00 0.00 0.00 96 1015.5
20210616110118 71 0 0.0 0.0 0.00 0.00 0.00 95 1015.5
20210616105549 71 0 0.0 0.0 0.00 0.00 0.00 95 1015.6
20210616105050 71 0 0.0 0.0 0.00 0.00 0.00 95 1015.6
20210616104702 71 0 0.0 0.0 0.00 0.00 0.00 95 1015.5
20210616104056 71 0 0.0 0.0 0.00 0.00 0.00 95 1015.5
20210616103543 71 0 0.0 0.0 0.00 0.00 0.00 95 1015.4
20210616103209 71 0 0.0 0.0 0.00 0.00 0.00 95 1015.4
20210616102547 71 0 0.0 0.0 0.00 0.00 0.00 95 1015.3
20210616102043 71 0 0.0 1.0 0.00 0.00 0.00 95 1015.4
20210616101654 71 0 0.0 2.0 0.00 0.00 0.00 95 1015.4
20210616101104 71 112 0.0 2.0 0.00 0.00 0.00 95 1015.4
20210616100549 71 0 1.0 2.0 0.00 0.00 0.00 95 1015.4
20210616100131 71 112 0.0 2.0 0.00 0.00 0.00 95 1015.4
20210616095542 71 0 0.0 0.0 0.00 0.00 0.00 94 1015.4
20210616095042 71 0 0.0 1.0 0.00 0.00 0.00 94 1015.3
20210616094615 71 0 0.0 3.0 0.00 0.00 0.00 94 1015.3
20210616094043 71 0 1.0 3.0 0.00 0.00 0.00 94 1015.3
20210616093540 71 0 0.0 2.0 0.00 0.00 0.00 94 1015.5
20210616093135 72 112 0.0 2.0 0.00 0.00 0.00 94 1015.5
20210616092540 72 0 0.0 2.0 0.00 0.00 0.00 94 1015.4